Waarnemingen

Advertentie
Mijn weer
Boulogne, Frankrijk (7002): temperatuur & dauwpunt: 20.05.2017 16:00:00 - 26.05.2017 16:00:00 (CEST)Boulogne, Frankrijk (7002): windsnelheid & windstoten: 20.05.2017 16:00:00 - 26.05.2017 16:00:00 (CEST)Boulogne, Frankrijk (7002): windrichting: 20.05.2017 16:00:00 - 26.05.2017 16:00:00 (CEST)Boulogne, Frankrijk (7002): luchtdruk: 20.05.2017 16:00:00 - 26.05.2017 16:00:00 (CEST)Boulogne, Frankrijk (7002): zicht: 20.05.2017 16:00:00 - 26.05.2017 16:00:00 (CEST)Boulogne, Frankrijk (7002): neerslag: 20.05.2017 16:00:00 - 26.05.2017 16:00:00 (CEST)
Datum & Tijd tt [°C] td [°C] ff [km/u] ff [kn] fx [km/u] fx [kn] dd ppp [hPa] vv [km] rr [mm]
26.05.2017 16:00:00 26,4 10,5 20 11 39 21 OZO 1016,5 - 0,0
26.05.2017 15:00:00 25,6 10,2 21 12 45 25 OZO 1017,0 - 0,0
26.05.2017 14:00:00 25,0 11,2 16 9 44 24 O 1017,7 - 0,0
26.05.2017 13:00:00 24,3 11,6 18 10 46 25 O 1018,4 - 0,0
26.05.2017 12:00:00 23,1 11,5 19 10 40 22 O 1019,1 - 0,0
26.05.2017 11:00:00 22,4 12,3 13 7 32 17 OZO 1019,6 - 0,0
26.05.2017 10:00:00 21,0 11,6 17 9 39 21 OZO 1020,1 - 0,0
26.05.2017 09:00:00 19,7 11,5 18 10 37 20 OZO 1020,3 - 0,0
26.05.2017 08:00:00 18,4 10,7 21 12 47 26 OZO 1020,0 20 0,0
26.05.2017 07:00:00 17,8 10,7 21 12 40 22 O 1019,8 - 0,0
26.05.2017 06:00:00 17,0 10,6 21 11 36 19 O 1020,1 - 0,0
26.05.2017 05:00:00 17,0 10,8 19 10 35 19 O 1020,1 15 0,0
26.05.2017 04:00:00 17,2 11,0 18 10 38 20 O 1020,2 - 0,0
26.05.2017 03:00:00 17,1 11,1 21 12 35 19 O 1020,2 - 0,0
26.05.2017 02:00:00 17,2 11,7 19 10 32 17 O 1020,7 15 0,0
26.05.2017 01:00:00 16,6 11,5 23 12 33 18 ONO 1021,0 - 0,0
26.05.2017 00:00:00 16,8 11,7 23 12 38 21 ONO 1021,2 - 0,0
25.05.2017 23:00:00 17,1 11,6 24 13 38 21 ONO 1021,3 - 0,0
25.05.2017 22:00:00 17,8 11,4 23 13 38 20 ONO 1021,1 - 0,0
25.05.2017 21:00:00 19,2 11,7 22 12 33 18 ONO 1021,2 - 0,0
25.05.2017 20:00:00 20,8 12,0 19 10 36 19 ONO 1021,4 30 0,0
25.05.2017 19:00:00 21,7 12,5 17 9 35 19 ONO 1021,7 - 0,0
25.05.2017 18:00:00 22,0 12,8 17 9 32 17 NO 1022,1 - 0,0
25.05.2017 17:00:00 23,6 14,0 14 7 29 16 NO 1022,3 - 0,0
25.05.2017 16:00:00 23,7 11,4 18 10 32 17 ONO 1022,7 - 0,0
25.05.2017 15:00:00 23,1 10,5 17 9 32 17 ONO 1023,3 - 0,0
25.05.2017 14:00:00 22,2 11,3 15 8 31 17 O 1023,9 18 0,0
25.05.2017 13:00:00 21,6 11,3 16 8 35 19 ONO 1024,3 - 0,0
25.05.2017 12:00:00 20,6 11,0 15 8 32 17 ONO 1024,8 - 0,0
25.05.2017 11:00:00 19,6 11,1 15 8 29 15 ONO 1025,2 - 0,0
25.05.2017 10:00:00 18,8 12,8 11 6 24 13 ONO 1025,3 - 0,0
25.05.2017 09:00:00 17,2 12,3 12 6 24 13 O 1025,2 - 0,0
25.05.2017 08:00:00 15,8 11,8 16 8 28 15 O 1025,1 - 0,0
25.05.2017 07:00:00 14,7 11,5 16 9 24 13 O 1024,7 - 0,0
25.05.2017 06:00:00 14,8 11,2 14 8 22 12 ONO 1024,7 - 0,0
25.05.2017 05:00:00 15,0 11,9 15 8 23 12 ONO 1024,5 8 0,0
25.05.2017 04:00:00 15,0 11,9 14 7 21 11 O 1025,0 - 0,0
25.05.2017 03:00:00 15,3 11,9 14 7 26 14 O 1025,3 - 0,0
25.05.2017 02:00:00 15,1 12,0 9 5 15 8 O 1025,6 8 0,0
25.05.2017 01:00:00 14,5 11,8 9 5 24 13 OZO 1025,7 - 0,0
25.05.2017 00:00:00 15,5 11,9 15 8 24 13 ONO 1025,7 - 0,0
24.05.2017 23:00:00 15,7 12,4 8 5 16 8 NNO 1026,1 8 0,0
24.05.2017 22:00:00 14,7 12,4 5 3 11 6 N 1025,8 - 0,0
24.05.2017 21:00:00 15,9 12,8 4 2 9 5 NNW 1025,7 - 0,0
24.05.2017 20:00:00 16,4 12,9 5 3 11 6 NW 1025,6 - 0,0
24.05.2017 19:00:00 16,7 13,0 8 4 13 7 W 1025,6 - 0,0
24.05.2017 18:00:00 16,6 13,1 9 5 15 8 WNW 1026,0 - 0,0
24.05.2017 17:00:00 16,8 13,5 9 5 18 10 WNW 1026,3 7 0,0
24.05.2017 16:00:00 17,7 13,8 11 6 18 10 WZW 1026,4 - 0,0
24.05.2017 15:00:00 17,4 13,3 9 5 17 9 WZW 1026,5 - 0,0
24.05.2017 14:00:00 16,6 13,5 9 5 17 9 W 1026,7 4,0 0,0
24.05.2017 13:00:00 16,2 13,3 9 5 16 9 W 1026,9 - 0,0
24.05.2017 12:00:00 15,6 13,4 10 5 16 9 W 1026,9 - 0,0
24.05.2017 11:00:00 14,6 13,6 8 4 15 8 ZW 1026,7 - 0,0
24.05.2017 10:00:00 14,2 13,9 8 5 14 8 ZZW 1026,5 - 0,0
24.05.2017 09:00:00 13,9 13,6 6 3 11 6 Z 1026,2 - 0,0
24.05.2017 08:00:00 13,3 13,0 6 3 11 6 ZZW 1025,7 0,2 0,0
24.05.2017 07:00:00 13,1 12,8 6 4 11 6 ZZW 1025,3 - 0,0
24.05.2017 06:00:00 13,0 12,7 7 4 14 8 ZZW 1024,9 - 0,0
24.05.2017 05:00:00 12,9 12,6 8 5 16 9 Z 1024,9 - 0,0
24.05.2017 04:00:00 12,7 12,4 10 5 16 8 ZZW 1024,9 - 0,0
24.05.2017 03:00:00 12,6 12,3 10 5 17 9 Z 1024,9 - 0,0
24.05.2017 02:00:00 12,5 12,2 10 5 18 10 Z 1025,2 - 0,0
24.05.2017 01:00:00 12,5 12,2 8 4 19 10 Z 1025,0 - 0,0
24.05.2017 00:00:00 12,4 12,1 12 7 21 11 ZZW 1024,8 - 0,0
23.05.2017 23:00:00 12,5 12,2 12 7 24 13 ZW 1024,9 - 0,0
23.05.2017 22:00:00 12,7 12,2 17 9 29 16 ZW 1024,4 0,2 0,0
23.05.2017 21:00:00 13,3 12,4 16 9 29 16 ZW 1024,3 0,7 0,0
23.05.2017 20:00:00 14,2 12,4 14 8 31 17 ZZW 1023,9 - 0,0
23.05.2017 19:00:00 14,6 11,9 19 11 34 19 ZW 1023,7 - 0,0
23.05.2017 18:00:00 15,2 11,2 21 11 36 20 ZW 1023,6 - 0,0
23.05.2017 17:00:00 15,2 11,2 22 12 33 18 ZW 1023,3 8 0,0
23.05.2017 16:00:00 16,2 10,9 18 10 27 14 ZW 1023,3 - 0,0
23.05.2017 15:00:00 14,9 11,5 12 7 29 16 WZW 1023,4 - 0,0
23.05.2017 14:00:00 15,2 11,4 16 9 26 14 WZW 1023,0 15 0,0
23.05.2017 13:00:00 14,9 11,7 16 9 26 14 ZW 1022,6 - 0,0
23.05.2017 12:00:00 14,8 11,0 10 6 23 12 WZW 1022,4 - 0,0
23.05.2017 11:00:00 14,1 10,9 16 9 22 12 W 1022,0 40 0,0
23.05.2017 10:00:00 13,6 10,4 11 6 19 11 W 1020,9 - 0,0
23.05.2017 09:00:00 13,4 10,7 13 7 23 12 WNW 1020,3 - 0,0
23.05.2017 08:00:00 13,2 10,9 9 5 26 14 WNW 1019,5 20 0,0
23.05.2017 07:00:00 12,7 11,3 14 8 26 14 W 1018,8 - 0,0
23.05.2017 06:00:00 12,6 11,7 11 6 24 13 WZW 1018,0 - 0,0
23.05.2017 05:00:00 12,7 11,9 14 7 29 16 WZW 1017,5 10 0,0
23.05.2017 04:00:00 12,8 11,7 21 11 31 17 WZW 1017,2 - 0,0
23.05.2017 03:00:00 13,5 11,5 21 11 34 18 WZW 1016,9 - 0,0
23.05.2017 02:00:00 13,9 11,6 15 8 33 18 WZW 1016,0 - 0,0
23.05.2017 01:00:00 17,6 9,0 22 12 34 18 ZW 1015,8 - 0,0
23.05.2017 00:00:00 18,4 9,2 10 6 18 10 ZZW 1015,7 - 0,0
22.05.2017 23:00:00 18,9 9,4 6 4 10 6 Z 1015,8 20 0,0
22.05.2017 22:00:00 19,2 7,6 3 1 7 4 WZW 1015,7 - 0,0
22.05.2017 21:00:00 19,9 7,6 0 0 6 4 N 1015,3 - 0,0
22.05.2017 20:00:00 21,6 8,8 3 2 10 6 NW 1015,0 - 0,0
22.05.2017 19:00:00 21,3 7,5 6 4 11 6 NW 1015,2 - 0,0
22.05.2017 18:00:00 20,9 8,8 7 4 16 8 NW 1015,5 - 0,0
22.05.2017 17:00:00 21,2 8,8 9 5 18 10 NNW 1015,7 - 0,0
22.05.2017 16:00:00 20,1 9,0 12 6 18 10 NNW 1016,2 - 0,0
22.05.2017 15:00:00 20,1 9,6 8 4 14 7 NW 1016,4 - 0,0
22.05.2017 14:00:00 21,4 11,1 11 6 28 15 ZZW 1016,6 - 0,0
22.05.2017 13:00:00 22,2 7,2 16 9 31 17 Z 1017,0 - 0,0
22.05.2017 12:00:00 21,3 8,9 15 8 32 18 ZZO 1017,6 - 0,0
22.05.2017 11:00:00 21,2 8,5 14 8 25 13 ZZO 1017,6 - 0,0
22.05.2017 10:00:00 19,2 9,1 13 7 25 14 ZO 1017,5 - 0,0
22.05.2017 09:00:00 17,9 7,9 12 7 27 15 ZO 1017,9 - 0,0
22.05.2017 08:00:00 17,1 6,3 13 7 26 14 ZO 1018,1 20 0,0
22.05.2017 07:00:00 14,4 6,5 13 7 22 12 OZO 1018,5 - 0,0
22.05.2017 06:00:00 14,2 6,5 11 6 21 11 OZO 1018,5 - 0,0
22.05.2017 05:00:00 14,4 6,7 11 6 23 12 OZO 1018,7 15 0,0
22.05.2017 04:00:00 14,8 6,9 11 6 25 14 O 1019,2 - 0,0
22.05.2017 03:00:00 15,3 7,1 13 7 23 13 O 1019,8 - 0,0
22.05.2017 02:00:00 15,3 6,8 11 6 20 11 O 1020,3 - 0,0
22.05.2017 01:00:00 15,8 7,0 10 6 22 12 OZO 1020,9 - 0,0
22.05.2017 00:00:00 16,3 7,2 13 7 24 13 OZO 1021,2 - 0,0
21.05.2017 23:00:00 16,6 7,8 15 8 23 13 OZO 1021,3 12 0,0
21.05.2017 22:00:00 17,3 8,4 12 7 21 12 O 1021,4 - 0,0
21.05.2017 21:00:00 18,2 8,2 14 8 28 15 OZO 1021,6 - 0,0
21.05.2017 20:00:00 18,8 7,9 13 7 25 14 ZO 1021,7 25 0,0
21.05.2017 19:00:00 16,6 11,1 8 4 29 15 N 1022,2 - 0,0
21.05.2017 18:00:00 17,2 10,6 17 9 31 17 NNW 1022,6 - 0,0
21.05.2017 17:00:00 18,2 9,8 10 5 23 13 N 1023,6 25 0,0
21.05.2017 16:00:00 17,7 9,3 12 7 21 11 NNW 1024,3 - 0,0
21.05.2017 15:00:00 16,5 9,2 10 6 18 10 NNW 1024,7 - 0,0
21.05.2017 14:00:00 15,4 10,0 9 5 19 10 NNW 1025,3 25 0,0
21.05.2017 13:00:00 14,5 9,9 7 4 14 8 NW 1025,9 - 0,0
21.05.2017 12:00:00 14,8 10,0 9 5 18 10 WNW 1026,4 - 0,0
21.05.2017 11:00:00 16,8 7,7 8 4 16 8 ZO 1026,4 - 0,0
21.05.2017 10:00:00 14,9 8,4 8 4 15 8 ZZO 1026,4 - 0,0
21.05.2017 09:00:00 13,9 8,3 7 4 12 7 ZZO 1026,3 - 0,0
21.05.2017 08:00:00 12,4 8,3 7 4 11 6 ZO 1026,2 20 0,0
21.05.2017 07:00:00 11,0 8,4 7 4 10 6 ZO 1025,8 - 0,0
21.05.2017 06:00:00 10,8 8,6 8 4 11 6 ZO 1025,6 - 0,0
21.05.2017 05:00:00 10,9 8,5 6 3 10 5 ZO 1025,4 12 0,0
21.05.2017 04:00:00 11,4 8,4 5 3 10 5 Z 1025,4 - 0,0
21.05.2017 03:00:00 11,7 8,4 6 4 16 9 Z 1025,4 - 0,0
21.05.2017 02:00:00 11,8 8,1 10 5 20 11 Z 1025,4 12 0,0
21.05.2017 01:00:00 12,1 8,0 9 5 21 11 ZZW 1025,3 - 0,0
21.05.2017 00:00:00 11,7 7,8 9 5 20 11 Z 1024,9 - 0,0
20.05.2017 23:00:00 12,1 7,8 10 6 24 13 ZZW 1024,6 12 0,0
20.05.2017 22:00:00 12,4 8,1 17 9 30 16 ZW 1024,1 - 0,0
20.05.2017 21:00:00 13,2 7,6 17 9 36 19 ZZW 1023,4 - 0,0
20.05.2017 20:00:00 13,5 7,9 24 13 41 22 ZW 1023,0 20 0,0
20.05.2017 19:00:00 13,9 7,6 22 12 38 21 ZW 1022,5 - 0,0
20.05.2017 18:00:00 14,3 8,3 21 11 37 20 ZW 1022,2 - 0,0
20.05.2017 17:00:00 13,7 8,5 26 14 38 20 ZW 1022,1 20 0,0
20.05.2017 16:00:00 13,3 8,4 26 14 41 22 ZW 1021,8 - 0,0

tt = temperatuur
td = dauwpunt
ff = windsnelheid
fx = windstoten
dd = windrichting
ppp = luchtdruk
vv = zicht
rr = neerslag

Weerstations in de omgeving